DELTA 1 DEB, 10647

Orbit data source: Space-Track

DELTA 1 DEB, 10647 is space debris in SSO originally from a launch on Thu, 29 Jul 1976 UTC launched from the Air Force Western Test Range (AFWTR). Debris objects in space refer to the collection of defunct objects orbiting the Earth. Examples of debris include non-operational satellites, rocket bodies, and fragments generated from explosions, collisions, or faulty payload assembly.

Loading next visibility...
Identifier
10647, 1976-077H
Orbit
SSO
Country
Flag of USUS
Related business
Manufacturer
Unknown
Mission
Spacecraft
Bus & Motor
Unknown
Mass
Unknown
Launch date (UTC)
1976-07-29 (49 years ago)
Launch vehicle
Unknown
Launch site
Air Force Western Test Range (AFWTR)
Object type
Payload
Rocket body
Debris
Shape & HBR
Unknown shape, 0.1 m
Radar Cross Section
Medium (>0.1 m² and <1 m²)

Expand to show TLE details & history
Last TLE update: 20 hours ago

TLE from 20 hours ago
0 DELTA 1 DEB
1 10647U 76077H   25292.04398856  .00000080  00000-0  12917-2 0  9998
2 10647 102.7612  26.9224 0166299 176.7347   8.0993 12.11292444177028
Epoch: 2025-10-19T01:03Z
TLE epoch observation values (Epoch: 2025-10-19T01:03:20.611Z)
Latitude
-5.11234°
Longitude
162.16489°
Altitude
1,502.153 km
Speed
7.172 km/s
True Right ascension
13h 43m 04s
True Declination
-5° 05' 05"
Sunlit
Object was in daylight at epoch
Visualization orbit readout
Latitude
Unknown
Longitude
Unknown
Altitude
Unknown
Speed
Unknown
Apparent Right ascension
Unknown
Apparent Declination
Unknown
Sunlit
N/A
Visualization observer readout
Local Sidereal Time
15:35:33
Azimuth
Unknown
Elevation
Unknown
Doppler factor
Unknown
Orbital elements
Apogee altitude
1,761.499 km
Perigee altitude
1,495.205 km
Semi-major axis
8,006.489 km
Eccentricity
0.01663
Inclination
102.7612°
RAAN
26.9224°
Arg. of periapsis
176.7347°
True anomaly
8.37342°
Mean anomaly
8.0993°
Eccentric anomaly
8.23579°
Mean motion
3.02956 °/min
Orbital period
118.83 mins
BSTAR
0.0012917
Loading maneuver chart data...
Computing Atmospheric mass density...
Loading historical data...
Loading historical data...
Loading historical data...
Loading historical data...
Loading historical data...
Loading historical data...
Loading historical data...

Documentation

Showing up to 5 results
|